Meteo Giornale » Osservazioni meteo Gran Bretagna » Cranwell
ore: 01:20 - Osservazioni Meteo Cranwell
Lat. 53° 2' N Lon. 0° 30' W Alt. 67 metri s.l.m.
16 °C
Coperto
Temp. 24 Ore
11 °C
22 °C
Ovest/Sud-Ovest
20.3 Km/h
Dew point 12 °C
Umidità 77 %
Visibilità 10 Km
Il sole sorge alle ore 06:13
Il sole tramonta alle ore 19:49
| Data e Ora | Cielo e Fenomeni | T °C | DP °C | Um. % | Pres. hPa | Vis. km | Vento km/h | |
|---|---|---|---|---|---|---|---|---|
| Oggi h: 01:20 | Coperto | 16 | 12 | 77 | 1018 | 10 | O/SO 20.3 | |
| Oggi h: 00:50 | Coperto | 16 | 12 | 77 | 1018 | 10 | O/SO 20.3 | |
| Oggi h: 00:20 | Coperto | 16 | 12 | 77 | 1018 | 10 | O/SO 18.5 | |
| Ieri h: 23:50 | Coperto | 16 | 12 | 77 | 1018 | 10 | O/SO 13 | |
| Ieri h: 23:20 | Molto Nuvoloso | 17 | 12 | 72 | 1018 | 10 | O/SO 20.3 | |
| Ieri h: 22:50 | Coperto | 17 | 12 | 72 | 1018 | 10 | O/SO 20.3 | |
| Ieri h: 22:20 | Coperto | 17 | 12 | 72 | 1018 | 10 | O/SO 20.3 | |
| Ieri h: 21:50 | Molto Nuvoloso | 17 | 12 | 72 | 1018 | 10 | O/SO 18.5 | |
| Ieri h: 21:20 | Coperto | 17 | 12 | 72 | 1018 | 10 | O/SO 13 | |
| Ieri h: 20:50 | Molto Nuvoloso | 17 | 11 | 67 | 1018 | 10 | O/SO 14.8 | |
| Ieri h: 20:20 | Coperto | 18 | 11 | 63 | 1018 | 10 | O/SO 16.7 | |
| Ieri h: 19:50 | Molto Nuvoloso | 18 | 11 | 63 | 1018 | 10 | O/SO 18.5 | |
| Ieri h: 19:20 | Molto Nuvoloso | 19 | 10 | 55 | 1018 | 10 | O/SO 14.8 | |
| Ieri h: 18:50 | Molto Nuvoloso | 20 | 10 | 52 | 1018 | 10 | O 20.3 | |
| Ieri h: 18:20 | Coperto | 21 | 10 | 49 | 1017 | 10 | O/SO 22.2 | |
| Ieri h: 17:50 | Poco Nuvoloso | 20 | 10 | 52 | 1017 | 10 | O/SO 22.2 | |
| Ieri h: 17:20 | Molto Nuvoloso | 21 | 10 | 49 | 1017 | 10 | O/SO 25.9 | |
| Ieri h: 16:50 | Molto Nuvoloso | 20 | 9 | 49 | 1017 | 10 | O/SO 24 | |
| Ieri h: 16:20 | Molto Nuvoloso | 20 | 10 | 52 | 1018 | 10 | O/SO 25.9 | |
| Ieri h: 15:50 | Molto Nuvoloso | 21 | 9 | 46 | 1018 | 10 | O/SO 25.9 | |
| Ieri h: 15:20 | Sereno | 22 | 9 | 43 | 1018 | 10 | O/SO 22.2 | |
| Ieri h: 14:50 | Sereno | 21 | 9 | 46 | 1018 | 10 | O/SO 29.6 | |
| Ieri h: 14:20 | Nuvoloso | 22 | 8 | 40 | 1018 | 10 | O/SO 25.9 | |
| Ieri h: 13:50 | Poco Nuvoloso | 22 | 9 | 43 | 1018 | 10 | O/SO 29.6 | |
| Ieri h: 13:20 | Poco Nuvoloso | 22 | 9 | 43 | 1018 | 10 | O/SO 25.9 | |
| Ieri h: 12:50 | Poco Nuvoloso | 21 | 9 | 46 | 1018 | 10 | O/SO 24 | |
| Ieri h: 12:20 | Poco Nuvoloso | 20 | 8 | 45 | 1018 | 10 | O/SO 25.9 | |
| Ieri h: 11:50 | Poco Nuvoloso | 20 | 9 | 49 | 1018 | 10 | O/SO 24 | |
| Ieri h: 11:20 | Nuvoloso | 20 | 10 | 52 | 1018 | 10 | O/SO 25.9 | |
| Ieri h: 10:50 | Nuvoloso | 19 | 9 | 52 | 1019 | 10 | O/SO 29.6 | |
| Ieri h: 10:20 | Nuvoloso | 18 | 11 | 63 | 1019 | 10 | O/SO 25.9 | |
| Ieri h: 09:50 | Nuvoloso | 17 | 10 | 63 | 1019 | 10 | O/SO 20.3 | |
| Ieri h: 09:20 | Sereno | 17 | 10 | 63 | 1019 | 10 | O/SO 22.2 | |
| Ieri h: 08:50 | Sereno | 16 | 11 | 72 | 1019 | 10 | O/SO 18.5 | |
| Ieri h: 08:20 | Sereno | 15 | 11 | 76 | 1018 | 10 | O/SO 20.3 | |
| Ieri h: 07:50 | Sereno | 13 | 11 | 87 | 1019 | 10 | O/SO 22.2 | |
| Ieri h: 07:20 | Sereno | 12 | 10 | 87 | 1018 | 10 | O/SO 20.3 | |
| Ieri h: 06:50 | Sereno | 12 | 10 | 87 | 1018 | 10 | O/SO 20.3 | |
| Ieri h: 06:20 | Molto Nuvoloso | 11 | 10 | 93 | 1018 | 10 | O/SO 18.5 | |
| Ieri h: 05:50 | Coperto | 12 | 10 | 87 | 1018 | 10 | O/SO 18.5 | |
| Ieri h: 05:20 | Poco Nuvoloso | 12 | 10 | 87 | 1018 | 10 | O/SO 20.3 | |
| Ieri h: 04:50 | Sereno | 11 | 10 | 93 | 1017 | 10 | O/SO 18.5 | |
| Ieri h: 04:20 | Sereno | 11 | 10 | 93 | 1018 | 10 | O/SO 16.7 | |
| Ieri h: 03:50 | Poco Nuvoloso | 11 | 10 | 93 | 1017 | 10 | O/SO 16.7 | |
| Ieri h: 03:20 | Sereno | 12 | 10 | 87 | 1018 | 10 | O/SO 14.8 | |
| Ieri h: 02:50 | Molto Nuvoloso | 12 | 10 | 87 | 1018 | 10 | O/SO 14.8 | |



